KD4LXC-1 Weather Reports


time (UTC)temp
C
wind
direction
speed
KPH
gust
KPH
rain 1hr
cm
rain 24hr
cm
rain mn
cm
humidity
%
barometer
mb
20260505102126 22 277 0.0 0.0 0.00 0.00 0.00 33 885.6
20260505100917 22 224 0.0 0.0 0.00 0.00 0.00 33 885.6
20260505095709 21 205 0.0 0.0 0.00 0.00 0.00 34 885.6
20260505094606 21 207 0.0 0.0 0.00 0.00 0.00 34 885.5
20260505094459 21 207 0.0 0.0 0.00 0.00 0.00 34 885.5
20260505093250 21 219 0.0 0.0 0.00 0.00 0.00 35 885.4
20260505092041 21 217 0.0 0.0 0.00 0.00 0.00 35 885.4
20260505090832 21 224 0.0 0.0 0.00 0.00 0.00 36 885.4
20260505085623 21 224 0.0 0.0 0.00 0.00 0.00 36 885.5
20260505084453 21 224 0.0 0.0 0.00 0.00 0.00 37 885.5
20260505084414 21 224 0.0 0.0 0.00 0.00 0.00 37 885.5
20260505083237 21 224 0.0 0.0 0.00 0.00 0.00 37 885.6
20260505083205 21 224 0.0 0.0 0.00 0.00 0.00 37 885.6
20260505081956 21 224 0.0 0.0 0.00 0.00 0.00 38 885.8
20260505080747 21 218 0.0 0.0 0.00 0.00 0.00 38 885.7
20260505075538 21 224 0.0 0.0 0.00 0.00 0.00 39 885.9
20260505074329 21 180 0.0 0.0 0.00 0.00 0.00 40 885.9
20260505073120 21 264 0.0 0.0 0.00 0.00 0.00 40 886.2
20260505071911 20 179 0.0 0.0 0.00 0.00 0.00 41 886.2
20260505070703 20 224 0.0 0.0 0.00 0.00 0.00 41 886.3
20260505065454 20 217 0.0 0.0 0.00 0.00 0.00 41 886.5
20260505064244 20 180 0.0 0.0 0.00 0.00 0.00 41 886.5
20260505063035 20 356 0.0 0.0 0.00 0.00 0.00 41 886.4
20260505061826 20 87 0.0 0.0 0.00 0.00 0.00 41 886.6
20260505060617 20 134 0.0 0.0 0.00 0.00 0.00 40 886.8
20260505055408 21 87 0.0 0.0 0.00 0.00 0.00 39 886.9
20260505054159 21 70 0.0 0.0 0.00 0.00 0.00 39 887.0
20260505052950 21 48 0.0 0.0 0.00 0.00 0.00 38 887.2
20260505051741 21 94 0.0 0.0 0.00 0.00 0.00 38 887.2
20260505050532 21 104 0.0 0.0 0.00 0.00 0.00 37 887.1
20260505041656 22 121 0.0 0.0 0.00 0.00 0.00 34 887.1
20260505040446 22 136 0.0 0.0 0.00 0.00 0.00 33 887.2
20260505035238 22 146 0.0 0.0 0.00 0.00 0.00 33 887.3
20260505034029 22 152 0.0 0.0 0.00 0.00 0.00 32 887.5
20260505032819 22 139 0.0 0.0 0.00 0.00 0.00 31 886.9
20260505031610 22 125 0.0 0.0 0.00 0.00 0.00 30 886.9
20260505030401 23 128 0.0 0.0 0.00 0.00 0.00 29 887.0
20260505025152 23 159 0.0 0.0 0.00 0.00 0.00 29 887.1
20260505023943 23 141 0.0 0.0 0.00 0.00 0.00 28 886.9
20260505022734 23 138 0.0 0.0 0.00 0.00 0.00 27 886.9
20260505021525 23 132 0.0 0.0 0.00 0.00 0.00 26 886.6
20260505020319 24 104 0.0 0.0 0.00 0.00 0.00 25 887.0
20260505020316 24 104 0.0 0.0 0.00 0.00 0.00 25 887.0
20260505015107 24 114 0.0 0.0 0.00 0.00 0.00 24 886.7
20260505013858 25 124 0.0 0.0 0.00 0.00 0.00 23 886.4
20260505012649 25 96 0.0 0.0 0.00 0.00 0.00 22 886.6
20260505011440 25 187 0.0 0.0 0.00 0.00 0.00 21 886.5
20260505010231 26 121 0.0 0.0 0.00 0.00 0.00 20 886.6
20260505005022 26 148 0.0 0.0 0.00 0.00 0.00 19 886.5
20260505001355 27 108 0.0 0.0 0.00 0.00 0.00 17 886.5
20260505000146 27 125 0.0 0.0 0.00 0.00 0.00 16 886.4
20260504234937 28 145 0.0 0.0 0.00 0.00 0.00 15 886.4
20260504233728 28 125 0.0 0.0 0.00 0.00 0.00 14 886.6
20260504232519 29 80 0.0 0.0 0.00 0.00 0.00 12 886.4
20260504231310 30 111 0.0 0.0 0.00 0.00 0.00 11 886.5
20260504230101 31 125 0.0 0.0 0.00 0.00 0.00 11 886.5
20260504224852 31 158 0.0 0.0 0.00 0.00 0.00 10 886.4
20260504223643 31 139 0.0 0.0 0.00 0.00 0.00 9 886.4
20260504222434 31 121 0.0 0.0 0.00 0.00 0.00 9 886.4
20260504221225 31 86 0.0 0.0 0.00 0.00 0.00 9 886.6
20260504220016 32 181 0.0 0.0 0.00 0.00 0.00 8 886.6
20260504214807 32 25 0.0 0.0 0.00 0.00 0.00 8 886.7
20260504213558 32 136 0.0 0.0 0.00 0.00 0.00 8 886.7
20260504212349 32 169 0.0 0.0 0.00 0.00 0.00 8 886.9
20260504211140 32 135 0.0 0.0 0.00 0.00 0.00 7 887.5
20260504205931 33 170 0.0 0.0 0.00 0.00 0.00 8 887.1
20260504204722 33 136 0.0 0.0 0.00 0.00 0.00 8 887.3
20260504203513 33 186 0.0 0.0 0.00 0.00 0.00 8 887.8
20260504202305 33 183 0.0 0.0 0.00 0.00 0.00 9 887.9
20260504201055 32 143 0.0 0.0 0.00 0.00 0.00 10 887.9
20260504195846 32 37 0.0 0.0 0.00 0.00 0.00 10 888.0
20260504194637 32 113 0.0 0.0 0.00 0.00 0.00 11 888.3
20260504193428 32 156 0.0 0.0 0.00 0.00 0.00 12 888.2
20260504192219 31 180 0.0 0.0 0.00 0.00 0.00 13 888.3
20260504191010 31 159 0.0 0.0 0.00 0.00 0.00 13 888.5
20260504185800 31 134 0.0 0.0 0.00 0.00 0.00 15 888.6
20260504184551 30 186 0.0 0.0 0.00 0.00 0.00 16 888.7
20260504183343 29 127 0.0 0.0 0.00 0.00 0.00 17 888.7
20260504182133 28 217 0.0 0.0 0.00 0.00 0.00 18 889.0
20260504180924 28 233 0.0 0.0 0.00 0.00 0.00 19 889.2
20260504175715 27 212 0.0 0.0 0.00 0.00 0.00 20 889.1
20260504174506 27 176 0.0 0.0 0.00 0.00 0.00 20 889.2
20260504173257 27 169 0.0 0.0 0.00 0.00 0.00 21 889.2
20260504172048 27 173 0.0 0.0 0.00 0.00 0.00 21 889.5
20260504170839 27 172 0.0 0.0 0.00 0.00 0.00 22 889.6
20260504150709 21 197 0.0 0.0 0.00 0.00 0.00 36 889.5
20260504140624 18 233 0.0 0.0 0.00 0.00 0.00 41 889.4
20260504130539 17 207 0.0 0.0 0.00 0.00 0.00 44 888.9
20260504110409 17 214 0.0 0.0 0.00 0.00 0.00 44 888.3